Wind_Speed
37 38 38 38 39 39 39 40 40 40 41 41 41 42 42 42 43 43 43 44 44 44 43 43 43 43 43 42 42 42 41 41 41 41 41 40 40 40 39 38 37 37 37
38 39 39 39 40 40 41 41 42 43 43 43 44 45 46 46 46 46 46 47 47 47 47 46 45 45 45 45 45 44 44 43 43 43 42 42 41 41 41 40 40 39 39
39 40 40 41 41 42 43 43 44 45 46 46 47 47 48 48 48 49 49 49 49 49 48 48 48 47 47 46 46 46 46 45 44 43 43 43 42 43 42 42 42 41 41
40 41 42 42 43 44 45 46 46 47 48 49 49 49 50 50 50 50 51 51 51 51 50 50 50 49 49 48 48 48 48 47 45 45 45 45 44 44 44 43 42 42 42
42 43 44 45 46 47 47 48 49 49 50 51 51 51 51 52 52 52 53 53 53 53 53 53 53 52 51 51 50 50 49 49 47 47 47 46 45 46 45 44 43 43 43
43 44 46 47 48 49 50 50 51 51 52 52 53 53 54 54 55 55 56 56 56 56 56 55 55 55 54 53 52 51 51 51 49 49 49 49 48 47 45 44 44 44 44
45 46 47 48 49 51 51 52 52 53 54 55 56 56 56 57 58 58 58 58 59 59 58 58 58 57 56 55 54 53 52 52 52 51 51 50 50 48 47 46 47 46 46
46 47 48 49 51 52 53 54 55 56 56 57 59 59 59 59 59 60 60 61 61 60 60 60 60 59 58 57 56 55 54 54 53 53 52 52 51 51 51 50 49 49 49
48 49 50 52 52 53 54 56 57 58 58 59 61 62 62 62 61 59 60 60 61 61 61 61 61 60 59 58 58 57 57 57 55 54 54 55 53 53 53 53 51 51 49
51 52 52 53 54 55 56 58 59 60 62 62 63 63 64 64 63 61 60 60 60 61 61 61 61 61 61 60 60 60 59 58 57 56 56 56 54 54 55 53 52 52 51
53 54 55 55 56 57 59 60 62 63 64 65 65 65 65 64 64 65 62 60 59 60 61 61 61 61 62 61 61 61 60 60 58 58 58 57 57 57 56 53 53 54 52
55 56 57 58 60 61 62 63 63 64 65 65 66 66 66 65 64 65 64 62 60 59 59 60 60 61 61 61 61 61 61 60 59 58 59 59 58 57 56 55 54 54 53
57 58 59 61 62 62 64 64 65 65 65 65 66 66 66 65 64 64 64 62 59 58 58 57 58 59 59 58 59 59 59 59 58 57 59 60 58 57 55 55 55 54 53
58 60 61 62 63 64 64 65 65 65 65 65 65 65 65 63 63 62 62 61 59 57 56 55 55 56 56 56 56 56 57 56 56 55 56 56 56 56 55 55 55 54 53
60 62 62 63 63 64 65 65 65 65 65 64 63 63 62 60 60 59 59 58 57 55 52 50 51 52 53 53 53 53 54 53 53 52 53 53 53 53 52 52 53 53 52
61 62 63 64 64 65 65 65 64 64 64 62 61 60 58 57 56 56 54 53 51 49 46 43 45 47 49 49 49 49 48 49 49 49 50 49 49 49 48 48 50 50 48
62 63 63 64 65 65 64 63 63 62 61 59 58 56 55 54 52 50 49 48 46 45 42 39 40 42 43 43 43 43 43 44 43 43 44 45 45 45 45 46 46 46 46
62 63 64 64 64 63 62 62 61 59 57 56 55 53 51 50 49 47 46 45 44 42 40 37 37 37 37 37 37 37 38 38 38 38 39 39 40 40 41 42 43 43 43
62 63 63 62 61 60 60 59 57 55 53 52 51 50 48 47 46 45 44 42 41 39 37 35 33 34 34 34 34 33 33 34 33 33 33 33 34 35 36 37 38 39 39
61 61 60 58 58 57 56 55 53 51 50 49 47 46 45 44 43 41 40 38 37 35 33 31 30 29 29 31 31 31 29 30 30 30 30 30 31 31 32 33 35 35 36
58 57 55 55 55 54 53 52 50 48 46 45 43 42 41 40 39 36 34 33 33 32 30 28 27 27 27 28 28 28 27 27 28 28 28 28 28 28 29 30 31 31 31
54 53 52 52 51 50 50 49 47 44 42 39 38 37 37 36 33 31 30 30 29 29 28 26 25 25 25 27 27 26 25 25 26 26 26 26 26 26 27 28 29 29 29
51 49 49 48 47 46 46 44 42 40 37 35 34 34 33 31 30 28 28 27 26 26 26 25 24 23 23 25 25 24 24 24 24 24 24 24 24 24 24 25 26 27 26
48 47 46 44 44 43 41 39 37 34 32 31 31 31 30 28 27 27 25 24 24 24 24 23 22 21 22 23 23 23 23 23 24 23 22 21 22 23 23 23 24 25 25
45 43 42 41 39 37 36 35 33 31 30 29 29 28 27 25 25 25 23 23 22 22 23 23 22 21 21 22 22 23 22 21 22 21 21 20 20 20 20 22 24 24 24
43 42 40 38 36 33 32 32 31 28 27 26 26 25 24 24 24 23 22 22 22 21 22 23 21 20 20 20 20 20 21 20 20 20 20 19 19 18 18 20 21 23 23
Wind_Direction
273 274 274 275 274 274 274 275 275 276 276 277 277 278 277 277 277 276 276 275 275 276 276 274 274 274 275 275 277 275 275 276 276 277 278 278 277 278 279 280 282 283 284
274 274 275 275 275 274 274 275 275 276 276 277 277 278 278 278 277 276 276 276 276 276 276 275 274 274 274 274 275 274 274 274 276 276 276 276 276 277 277 279 280 282 283
275 275 275 275 275 275 275 276 276 276 277 277 277 277 278 277 277 276 276 275 275 275 276 274 274 273 273 273 273 272 272 273 274 274 274 275 275 275 276 277 279 281 282
276 276 276 276 276 276 277 277 278 278 278 278 278 277 277 277 277 277 276 275 275 274 274 273 273 272 272 272 272 271 272 272 272 272 273 273 273 274 274 276 278 280 281
276 277 277 277 277 277 278 278 278 279 278 278 278 277 277 277 277 277 276 275 274 274 273 273 272 271 271 271 270 270 270 270 270 269 270 271 273 274 272 275 276 278 279
277 277 278 278 277 278 278 279 279 279 279 278 278 278 277 277 277 277 276 275 274 273 272 271 271 271 270 269 269 268 267 268 268 268 269 270 271 271 270 274 275 277 278
278 278 279 279 280 280 279 279 279 279 279 279 279 278 278 278 278 278 277 276 274 272 272 271 270 270 269 267 267 266 266 267 266 267 268 268 269 270 271 272 274 276 277
280 280 281 282 282 282 281 280 280 280 280 280 280 279 278 278 278 278 277 276 274 273 272 271 270 269 267 265 265 266 266 266 265 265 265 266 268 269 270 271 273 275 276
281 283 283 283 283 283 283 282 282 281 281 281 281 281 281 280 278 277 277 276 275 274 272 271 269 267 266 265 264 264 265 265 264 264 263 265 266 268 269 270 270 272 273
283 284 285 284 285 285 284 284 284 283 282 282 282 282 283 282 281 279 277 275 274 273 271 270 268 267 266 264 264 263 264 264 265 264 264 264 266 267 269 269 270 270 271
284 285 285 285 285 285 285 285 284 284 283 283 282 282 282 282 282 281 279 276 274 273 271 270 269 267 266 264 263 263 263 263 264 264 262 263 264 266 267 267 269 269 269
285 285 285 286 286 286 286 286 285 285 284 283 283 283 282 282 282 281 281 278 275 272 271 270 269 268 265 264 263 263 262 263 262 263 261 262 263 264 264 265 266 267 268
284 285 285 286 287 287 287 287 286 286 285 284 283 283 282 282 282 281 281 279 276 273 271 270 269 268 266 263 262 262 261 262 261 261 261 261 261 262 262 263 264 265 265
285 286 286 286 287 287 287 287 287 286 286 285 284 283 282 281 281 281 282 281 277 274 272 270 269 268 265 263 262 261 260 261 260 260 261 260 260 260 260 261 261 262 263
286 287 287 287 287 288 288 287 287 286 286 285 284 283 282 281 282 281 281 280 278 275 272 269 267 266 264 263 262 261 260 260 261 261 261 260 259 258 258 260 259 261 263
287 288 288 288 288 288 288 288 287 286 286 285 284 283 281 281 282 281 280 278 277 276 273 268 266 265 263 263 262 262 261 260 259 260 261 259 258 258 257 258 261 262 261
288 289 289 288 289 288 288 287 286 285 285 284 283 283 281 280 280 280 278 276 274 274 273 268 266 265 263 263 263 262 261 260 260 260 260 259 258 257 257 258 259 260 260
289 289 289 289 289 288 288 288 286 285 284 282 282 282 280 279 279 278 277 275 272 273 272 268 265 263 262 262 262 262 259 259 260 260 261 260 258 256 257 257 259 258 259
290 290 290 289 289 288 289 288 286 284 283 282 281 280 278 277 278 277 275 275 271 269 269 267 263 261 259 259 259 258 258 255 256 258 258 257 256 257 256 257 259 257 259
291 291 290 289 288 289 290 289 287 284 282 281 281 279 278 277 277 276 274 273 269 267 266 264 260 256 256 257 256 257 258 254 254 253 253 255 257 256 256 259 260 258 260
292 291 289 288 289 290 290 289 287 284 282 280 279 279 277 276 276 274 271 269 266 264 261 257 253 252 253 254 255 257 257 253 252 251 253 254 256 258 260 262 259 257 261
292 290 289 289 290 289 289 288 287 285 282 279 278 277 276 274 272 269 268 266 263 260 255 252 250 251 252 252 251 252 252 251 251 250 253 253 255 256 258 259 259 260 265
292 290 290 290 290 290 289 288 287 285 281 278 276 275 275 271 268 266 264 262 258 256 253 251 249 251 250 249 248 249 248 249 246 247 251 252 252 256 257 260 261 263 265
292 291 291 290 290 289 288 287 285 283 281 278 273 273 271 266 263 261 258 256 254 254 252 250 248 247 247 244 245 244 243 246 246 246 250 253 254 255 258 260 261 262 265
292 291 291 291 290 289 288 285 283 282 279 275 272 270 266 262 260 256 254 254 252 252 250 247 243 241 241 241 242 241 241 243 242 244 249 256 258 258 260 262 263 265 265
291 291 290 290 289 288 286 284 282 279 277 275 270 266 262 260 258 254 254 255 252 250 247 242 241 240 238 239 240 242 242 241 240 243 250 256 260 262 264 266 266 266 267
Height
5781 5781 5781 5781 5781 5781 5781 5781 5781 5781 5781 5780 5780 5780 5780 5779 5779 5779 5779 5779 5779 5779 5779 5779 5779 5779 5779 5778 5778 5778 5778 5778 5778 5777 5777 5776 5776 5775 5775 5774 5774 5773 5772
5772 5772 5772 5772 5772 5772 5772 5772 5772 5772 5771 5771 5770 5770 5770 5769 5769 5768 5768 5768 5768 5768 5768 5768 5768 5768 5768 5768 5768 5768 5768 5768 5768 5768 5768 5767 5767 5766 5766 5766 5765 5764 5763
5764 5763 5763 5763 5763 5762 5762 5762 5762 5761 5761 5761 5760 5759 5759 5758 5757 5757 5757 5757 5757 5757 5757 5757 5757 5757 5757 5757 5758 5758 5758 5758 5758 5758 5758 5758 5758 5757 5757 5756 5756 5755 5754
5755 5754 5754 5753 5753 5752 5752 5751 5751 5750 5750 5749 5749 5748 5747 5746 5745 5745 5745 5744 5744 5744 5745 5745 5745 5745 5746 5746 5746 5746 5747 5747 5747 5748 5748 5747 5747 5747 5747 5746 5746 5746 5745
5745 5744 5743 5743 5742 5741 5741 5740 5739 5738 5738 5737 5736 5736 5735 5734 5733 5732 5732 5731 5731 5731 5731 5732 5732 5732 5733 5733 5734 5734 5735 5735 5736 5736 5736 5736 5736 5736 5736 5736 5736 5736 5735
5734 5733 5732 5731 5730 5729 5728 5728 5727 5725 5724 5723 5723 5723 5722 5721 5720 5719 5718 5717 5717 5717 5717 5717 5718 5718 5719 5720 5721 5722 5722 5723 5724 5725 5725 5725 5725 5724 5725 5725 5726 5725 5725
5723 5722 5721 5719 5718 5717 5716 5714 5713 5712 5711 5709 5708 5708 5708 5707 5705 5704 5703 5702 5701 5701 5701 5702 5702 5703 5704 5705 5706 5708 5709 5710 5711 5712 5712 5713 5714 5714 5714 5714 5715 5714 5714
5712 5710 5709 5708 5706 5704 5702 5701 5699 5698 5696 5694 5692 5692 5692 5694 5691 5689 5687 5685 5684 5684 5685 5685 5686 5687 5688 5690 5691 5693 5695 5696 5697 5699 5699 5701 5702 5702 5702 5703 5703 5703 5703
5700 5698 5697 5695 5693 5690 5689 5686 5684 5682 5681 5679 5676 5674 5673 5674 5675 5675 5672 5670 5667 5666 5667 5667 5668 5669 5671 5673 5675 5677 5679 5681 5682 5684 5686 5687 5689 5689 5690 5691 5691 5691 5691
5688 5686 5683 5681 5679 5677 5674 5672 5669 5667 5664 5663 5660 5657 5655 5654 5653 5656 5657 5654 5651 5649 5649 5649 5650 5651 5652 5655 5657 5660 5663 5665 5667 5669 5671 5672 5674 5676 5677 5677 5678 5678 5678
5675 5672 5670 5667 5665 5662 5659 5657 5654 5651 5647 5645 5643 5640 5638 5636 5633 5633 5637 5638 5635 5633 5631 5631 5632 5633 5634 5636 5638 5642 5645 5648 5650 5653 5655 5657 5659 5661 5662 5663 5663 5664 5665
5662 5659 5656 5653 5650 5647 5644 5641 5637 5634 5631 5628 5625 5622 5620 5618 5616 5613 5614 5617 5617 5617 5614 5613 5614 5614 5615 5617 5619 5623 5626 5630 5633 5635 5638 5641 5643 5645 5647 5648 5649 5650 5651
5648 5645 5642 5638 5634 5631 5628 5624 5621 5617 5614 5611 5608 5605 5602 5600 5598 5595 5594 5595 5596 5598 5598 5597 5596 5595 5597 5598 5601 5604 5608 5612 5615 5618 5621 5624 5626 5629 5631 5633 5634 5635 5637
5633 5630 5626 5623 5619 5615 5611 5607 5604 5600 5596 5593 5590 5587 5584 5583 5580 5578 5575 5574 5576 5579 5581 5581 5579 5578 5579 5581 5584 5587 5591 5594 5597 5600 5603 5606 5610 5613 5616 5618 5620 5621 5623
5617 5614 5610 5606 5603 5598 5594 5590 5586 5583 5579 5576 5573 5570 5567 5566 5563 5561 5559 5557 5556 5559 5565 5565 5564 5563 5563 5565 5568 5571 5575 5578 5581 5584 5587 5590 5594 5597 5601 5604 5606 5608 5610
5601 5597 5593 5589 5585 5581 5576 5572 5569 5565 5561 5559 5555 5553 5551 5549 5547 5545 5544 5542 5541 5541 5546 5550 5549 5548 5549 5551 5553 5557 5560 5563 5567 5570 5573 5576 5579 5583 5587 5590 5592 5594 5597
5585 5581 5576 5572 5567 5563 5559 5555 5552 5548 5545 5542 5539 5537 5536 5534 5533 5531 5530 5529 5529 5528 5531 5536 5536 5536 5537 5539 5542 5545 5548 5550 5554 5557 5561 5564 5567 5571 5574 5578 5580 5583 5585
5568 5564 5559 5555 5550 5546 5542 5538 5535 5531 5528 5526 5524 5523 5521 5520 5519 5518 5517 5517 5517 5517 5518 5522 5524 5525 5527 5529 5532 5534 5537 5540 5543 5547 5550 5553 5556 5560 5564 5566 5569 5571 5574
5552 5547 5543 5538 5534 5530 5526 5521 5518 5516 5513 5512 5510 5509 5508 5507 5507 5506 5505 5505 5505 5506 5507 5510 5513 5515 5517 5520 5523 5526 5529 5532 5535 5538 5541 5544 5548 5551 5554 5556 5559 5561 5564
5536 5532 5527 5523 5518 5514 5510 5507 5504 5502 5500 5498 5497 5496 5495 5494 5494 5494 5494 5494 5495 5496 5498 5500 5503 5506 5509 5512 5515 5518 5521 5524 5527 5530 5533 5536 5539 5542 5545 5547 5550 5552 5554
5521 5517 5512 5508 5504 5500 5497 5493 5491 5489 5487 5486 5485 5484 5483 5483 5483 5483 5484 5485 5486 5488 5489 5492 5495 5498 5501 5504 5508 5511 5514 5518 5521 5523 5526 5529 5532 5534 5536 5538 5541 5543 5545
5508 5503 5499 5495 5491 5487 5484 5480 5478 5476 5475 5474 5474 5474 5473 5473 5473 5474 5475 5477 5478 5480 5483 5485 5488 5491 5495 5498 5501 5504 5508 5511 5514 5518 5520 5523 5525 5528 5530 5531 5533 5535 5536
5495 5491 5486 5482 5479 5476 5472 5469 5466 5465 5464 5464 5464 5464 5464 5465 5465 5467 5469 5470 5472 5473 5476 5479 5482 5485 5489 5492 5495 5498 5501 5505 5508 5511 5515 5517 5519 5521 5523 5524 5526 5527 5529
5483 5479 5475 5471 5468 5465 5462 5459 5457 5456 5456 5456 5456 5456 5457 5458 5459 5460 5462 5464 5466 5468 5470 5473 5476 5480 5483 5486 5489 5493 5496 5499 5502 5505 5508 5511 5513 5515 5517 5519 5520 5521 5522
5472 5468 5464 5461 5458 5456 5452 5450 5448 5448 5448 5448 5449 5449 5450 5451 5453 5454 5456 5459 5461 5463 5465 5467 5470 5474 5477 5480 5483 5487 5491 5494 5497 5501 5503 5506 5508 5510 5512 5513 5514 5515 5516
5461 5457 5454 5451 5449 5447 5444 5442 5441 5441 5441 5442 5442 5443 5444 5445 5447 5448 5450 5453 5455 5458 5459 5462 5466 5469 5472 5475 5478 5482 5486 5490 5493 5496 5499 5501 5503 5505 5507 5509 5509 5510 5511